Theta_e
327 326 327 327 330 325 330 331 338 339 342 340 343 342 341 341 343 344 340 341 343 345 347 349 349 350 351 350 349 348 346 344
330 329 329 330 327 335 334 340 340 338 345 342 343 344 342 341 341 340 342 344 345 348 348 349 348 347 345 344 344 346 344 343
331 333 334 333 335 332 333 334 339 339 338 341 344 342 343 341 341 349 351 349 348 348 347 347 348 346 344 344 345 347 345 344
333 327 325 331 333 332 336 339 336 338 337 337 343 342 341 340 347 354 356 353 350 348 348 346 347 346 345 346 345 344 344 344
333 330 331 334 331 329 329 331 340 338 335 338 343 342 341 341 355 357 357 356 355 355 353 350 348 347 346 345 344 343 342 344
335 334 332 335 333 331 331 334 333 334 334 335 340 343 341 350 357 357 354 354 354 354 354 357 354 349 348 347 345 346 346 346
329 330 331 333 332 332 333 334 336 335 334 334 343 344 341 353 354 352 351 352 353 353 354 352 354 354 354 355 355 351 349 349
333 330 331 333 332 333 336 336 332 337 343 343 340 340 346 353 351 351 351 352 351 351 352 352 351 350 352 351 351 351 350 351
335 330 332 332 332 336 347 349 346 344 345 346 349 347 352 351 348 350 351 349 349 348 348 351 350 349 349 348 346 344 345 347
334 333 333 331 343 335 348 348 346 345 347 349 351 349 348 344 347 345 345 344 343 343 345 347 348 346 343 341 341 339 339 339
335 333 330 344 348 349 350 346 346 347 349 349 345 345 345 341 340 340 339 338 338 337 337 339 341 345 340 338 338 339 338 337
331 332 334 334 344 338 342 343 347 347 348 347 345 350 348 341 339 338 337 336 336 335 335 334 335 335 335 336 337 337 335 336
333 334 334 331 339 340 344 342 347 346 348 345 347 347 344 342 341 341 340 339 338 335 334 334 334 334 336 336 336 334 336 332
334 336 336 336 340 345 343 343 346 348 347 346 345 340 342 342 341 335 331 332 333 333 332 330 330 331 333 334 334 333 334 336
336 338 335 333 336 338 338 345 344 347 341 343 341 335 334 333 330 329 331 331 329 329 330 331 330 331 332 334 332 333 334 336
337 335 335 333 331 332 335 335 332 331 331 330 331 329 330 330 330 331 331 328 328 331 332 331 330 329 330 330 330 331 334 336
335 333 332 331 330 331 329 328 329 328 328 328 328 329 329 330 331 329 328 329 330 330 329 329 328 328 328 328 329 330 330 331
329 335 336 335 330 328 329 329 329 329 329 329 328 329 329 330 328 330 332 331 329 329 329 328 328 327 328 327 327 329 330 330
330 328 330 330 328 327 329 328 328 328 328 328 328 328 329 330 330 329 329 329 329 329 328 328 327 326 325 326 327 327 328 329
Wind_Speed
1 2 3 5 4 2 4 1 3 2 4 3 1 4 3 3 5 1 6 9 9 5 4 6 8 8 9 9 8 10 15 16
3 2 10 3 9 3 1 2 3 1 4 5 3 7 7 6 5 5 6 5 2 1 4 7 7 8 8 7 5 3 6 18
2 4 1 3 3 5 2 2 3 3 3 3 4 5 9 6 5 6 6 5 4 4 4 6 6 7 8 8 7 8 11 15
4 2 3 2 3 1 2 3 1 2 4 2 4 2 7 5 5 5 7 6 6 7 7 6 6 5 5 5 5 9 11 13
3 4 2 3 3 3 3 1 4 4 5 2 5 7 3 4 5 7 9 10 11 12 9 4 3 3 3 4 4 4 6 8
3 3 3 3 2 3 4 4 3 8 11 5 5 6 4 4 6 8 9 9 10 11 14 14 11 9 5 2 4 6 5 4
4 7 3 3 5 6 8 5 6 1 5 8 7 3 5 4 6 9 10 10 10 11 11 16 17 16 13 11 5 2 3 2
4 3 3 5 6 7 5 4 8 6 6 2 1 3 6 7 6 8 9 9 9 9 12 14 15 15 16 16 16 14 13 11
3 2 1 7 9 7 3 3 2 4 1 2 3 5 6 6 6 8 7 6 7 7 9 10 10 9 12 12 12 14 14 12
2 3 7 3 4 6 6 3 5 3 4 4 5 4 4 4 8 7 5 4 3 4 7 6 5 7 8 9 9 10 10 9
3 7 3 2 5 5 6 5 6 9 9 8 6 5 4 5 5 5 4 3 1 1 1 1 1 2 3 3 4 4 5 5
3 5 6 2 7 4 2 7 11 9 12 11 6 4 1 7 7 5 3 3 3 3 3 3 4 3 2 2 2 1 1 1
6 6 3 1 3 6 8 1 11 11 12 12 7 3 2 5 5 3 6 7 4 4 7 7 4 5 6 7 6 5 5 5
3 5 8 2 5 6 2 2 5 6 8 10 5 1 1 3 4 5 5 3 1 1 3 4 5 5 7 9 8 8 7 8
4 1 1 3 4 5 2 3 3 4 4 4 3 1 2 3 4 4 4 3 3 4 7 5 5 6 9 11 12 11 10 10
2 3 3 1 3 3 4 4 5 5 5 3 1 1 4 5 5 5 3 4 5 5 6 8 8 9 10 13 14 14 14 13
3 4 4 5 4 5 6 6 6 4 2 0 2 4 5 6 6 8 7 5 4 6 9 12 13 16 17 17 15 17 18 19
6 5 4 4 8 6 7 5 4 4 3 1 2 3 4 6 5 4 3 5 8 11 12 15 18 21 22 21 20 19 19 18
3 3 3 3 6 5 5 5 4 3 2 3 3 5 5 4 3 4 7 9 11 13 14 15 18 21 21 21 21 22 22 22
Wind_Direction
337 170 214 146 174 69 114 112 254 339 262 238 172 216 189 94 111 100 338 328 322 316 216 193 186 197 207 209 229 238 241 204
137 145 58 255 136 170 134 218 274 208 283 263 46 102 143 107 43 349 338 340 344 113 179 198 193 191 202 208 237 207 154 197
200 22 111 146 129 62 99 321 261 275 271 200 236 120 124 99 33 4 28 55 71 103 140 176 200 212 225 233 214 179 184 203
96 328 299 52 95 127 264 182 107 322 278 196 337 104 112 66 30 53 50 67 93 90 107 143 181 204 239 249 228 219 209 212
181 151 119 57 55 82 108 118 208 277 281 21 96 122 77 26 59 79 61 58 71 70 57 64 123 176 210 256 274 249 228 203
262 89 113 168 225 206 254 241 252 243 285 311 15 141 110 65 80 85 67 53 51 58 57 56 58 58 82 180 250 264 274 277
135 137 170 199 241 221 233 254 247 72 268 311 341 172 129 115 98 83 71 62 60 59 59 63 64 63 61 59 46 48 77 71
189 177 195 242 241 240 218 227 250 271 284 327 76 146 133 133 115 89 80 80 78 75 71 65 61 60 62 65 70 76 79 77
224 339 246 267 256 211 217 223 262 255 37 156 123 141 138 132 121 103 100 92 81 74 69 70 68 67 70 76 77 78 76 72
258 157 244 359 300 244 248 226 219 241 180 155 133 121 138 147 127 119 125 111 79 68 80 71 66 76 85 83 84 82 75 73
235 236 331 219 205 175 200 218 195 163 158 147 139 156 155 169 167 160 164 149 178 174 125 142 140 140 109 104 100 105 88 77
155 231 233 252 182 171 177 257 181 175 170 166 165 199 198 187 193 191 200 239 265 269 263 265 278 261 276 280 243 235 308 12
207 238 261 269 120 145 202 24 171 182 177 176 194 232 5 185 211 275 295 296 287 264 272 285 289 281 292 294 312 291 254 255
175 212 247 124 136 205 23 75 153 166 172 186 197 80 179 193 239 262 287 302 0 317 316 338 347 328 316 315 328 318 293 270
234 339 25 282 283 314 219 159 138 139 124 141 170 189 191 219 241 283 294 309 332 316 312 338 346 339 323 327 326 313 297 283
210 189 265 249 232 223 184 121 118 115 115 133 98 318 303 305 305 305 287 309 318 330 341 342 347 335 319 317 318 309 294 281
234 247 266 230 218 154 130 134 128 104 110 285 296 290 310 305 305 311 315 331 353 341 329 324 325 318 319 317 312 296 286 279
256 212 214 201 167 163 159 159 155 168 159 168 249 276 289 290 296 301 314 319 316 313 313 317 318 313 315 314 309 298 287 274
274 215 183 170 163 177 186 176 166 174 206 271 291 297 289 293 300 295 289 294 297 301 306 307 304 302 305 303 301 294 286 281